Year,Month,Day,Hour,Minute,Value (Times are PST for temperature in C)
2015,07,28,00,00,15.70
2015,07,28,00,01,15.70
2015,07,28,00,02,15.70
2015,07,28,00,03,15.70
2015,07,28,00,04,15.70
2015,07,28,00,05,15.70
2015,07,28,00,06,15.70
2015,07,28,00,07,15.70
2015,07,28,00,08,15.70
2015,07,28,00,09,15.70
2015,07,28,00,10,15.70
2015,07,28,00,11,15.70
2015,07,28,00,12,15.60
2015,07,28,00,13,15.60
2015,07,28,00,14,15.60
2015,07,28,00,15,15.60
2015,07,28,00,16,15.60
2015,07,28,00,17,15.60
2015,07,28,00,18,15.60
2015,07,28,00,19,15.60
2015,07,28,00,20,15.60
2015,07,28,00,21,15.60
2015,07,28,00,22,15.60
2015,07,28,00,23,15.60
2015,07,28,00,24,15.60
2015,07,28,00,25,15.60
2015,07,28,00,26,15.60
2015,07,28,00,27,15.60
2015,07,28,00,28,15.60
2015,07,28,00,29,15.50
2015,07,28,00,30,15.50
2015,07,28,00,31,15.60
2015,07,28,00,32,15.60
2015,07,28,00,33,15.60
2015,07,28,00,34,15.60
2015,07,28,00,35,15.60
2015,07,28,00,36,15.60
2015,07,28,00,37,15.50
2015,07,28,00,38,15.50
2015,07,28,00,39,15.50
2015,07,28,00,40,15.50
2015,07,28,00,41,15.60
2015,07,28,00,42,15.50
2015,07,28,00,43,15.50
2015,07,28,00,44,15.50
2015,07,28,00,45,15.50
2015,07,28,00,46,15.50
2015,07,28,00,47,15.50
2015,07,28,00,48,15.50
2015,07,28,00,49,15.40
2015,07,28,00,50,15.40
2015,07,28,00,51,15.40
2015,07,28,00,52,15.40
2015,07,28,00,53,15.40
2015,07,28,00,54,15.40
2015,07,28,00,55,15.40
2015,07,28,00,56,15.40
2015,07,28,00,57,15.40
2015,07,28,00,58,15.40
2015,07,28,00,59,15.40
2015,07,28,01,00,15.40
2015,07,28,01,01,15.40
2015,07,28,01,02,15.40
2015,07,28,01,03,15.30
2015,07,28,01,04,15.30
2015,07,28,01,05,15.30
2015,07,28,01,06,15.30
2015,07,28,01,07,15.30
2015,07,28,01,08,15.30
2015,07,28,01,09,15.30
2015,07,28,01,10,15.30
2015,07,28,01,11,15.30
2015,07,28,01,12,15.30
2015,07,28,01,13,15.30
2015,07,28,01,14,15.30
2015,07,28,01,15,15.30
2015,07,28,01,16,15.30
2015,07,28,01,17,15.30
2015,07,28,01,18,15.30
2015,07,28,01,19,15.30
2015,07,28,01,20,15.30
2015,07,28,01,21,15.30
2015,07,28,01,22,15.30
2015,07,28,01,23,15.30
2015,07,28,01,24,15.30
2015,07,28,01,25,15.30
2015,07,28,01,26,15.20
2015,07,28,01,27,15.20
2015,07,28,01,28,15.20
2015,07,28,01,29,15.20
2015,07,28,01,30,15.20
2015,07,28,01,31,15.20
2015,07,28,01,32,15.30
2015,07,28,01,33,15.30
2015,07,28,01,34,15.30
2015,07,28,01,35,15.30
2015,07,28,01,36,15.30
2015,07,28,01,37,15.30
2015,07,28,01,38,15.30
2015,07,28,01,39,15.30
2015,07,28,01,40,15.30
2015,07,28,01,41,15.30
2015,07,28,01,42,15.30
2015,07,28,01,43,15.30
2015,07,28,01,44,15.30
2015,07,28,01,45,15.30
2015,07,28,01,46,15.30
2015,07,28,01,47,15.30
2015,07,28,01,48,15.30
2015,07,28,01,49,15.30
2015,07,28,01,50,15.30
2015,07,28,01,51,15.30
2015,07,28,01,52,15.30
2015,07,28,01,53,15.30
2015,07,28,01,54,15.30
2015,07,28,01,55,15.30
2015,07,28,01,56,15.30
2015,07,28,01,57,15.30
2015,07,28,01,58,15.30
2015,07,28,01,59,15.20
2015,07,28,02,00,15.20
2015,07,28,02,01,15.20
2015,07,28,02,02,15.20
2015,07,28,02,03,15.20
2015,07,28,02,04,15.20
2015,07,28,02,05,15.20
2015,07,28,02,06,15.20
2015,07,28,02,07,15.20
2015,07,28,02,08,15.20
2015,07,28,02,09,15.20
2015,07,28,02,10,15.20
2015,07,28,02,11,15.10
2015,07,28,02,12,15.10
2015,07,28,02,13,15.10
2015,07,28,02,14,15.10
2015,07,28,02,15,15.10
2015,07,28,02,16,15.10
2015,07,28,02,17,15.10
2015,07,28,02,18,15.10
2015,07,28,02,19,15.10
2015,07,28,02,20,15.00
2015,07,28,02,21,15.00
2015,07,28,02,22,15.00
2015,07,28,02,23,15.00
2015,07,28,02,24,15.00
2015,07,28,02,25,15.00
2015,07,28,02,26,15.00
2015,07,28,02,27,14.90
2015,07,28,02,28,14.90
2015,07,28,02,29,14.90
2015,07,28,02,30,14.90
2015,07,28,02,31,14.90
2015,07,28,02,32,14.90
2015,07,28,02,33,14.90
2015,07,28,02,34,14.90
2015,07,28,02,35,14.90
2015,07,28,02,36,14.90
2015,07,28,02,37,14.90
2015,07,28,02,38,14.90
2015,07,28,02,39,14.90
2015,07,28,02,40,14.90
2015,07,28,02,41,14.90
2015,07,28,02,42,14.90
2015,07,28,02,43,14.90
2015,07,28,02,44,14.90
2015,07,28,02,45,14.90
2015,07,28,02,46,14.90
2015,07,28,02,47,14.90
2015,07,28,02,48,14.90
2015,07,28,02,49,14.90
2015,07,28,02,50,14.90
2015,07,28,02,51,14.90
2015,07,28,02,52,14.90
2015,07,28,02,53,14.90
2015,07,28,02,54,14.90
2015,07,28,02,55,14.90
2015,07,28,02,56,14.90
2015,07,28,02,57,14.80
2015,07,28,02,58,14.90
2015,07,28,02,59,14.90
2015,07,28,03,00,14.90
2015,07,28,03,01,14.90
2015,07,28,03,02,14.90
2015,07,28,03,03,14.80
2015,07,28,03,04,14.90
2015,07,28,03,05,14.90
2015,07,28,03,06,14.90
2015,07,28,03,07,14.90
2015,07,28,03,08,14.90
2015,07,28,03,09,14.90
2015,07,28,03,10,14.90
2015,07,28,03,11,14.90
2015,07,28,03,12,14.90
2015,07,28,03,13,14.80
2015,07,28,03,14,14.80
2015,07,28,03,15,14.80
2015,07,28,03,16,14.80
2015,07,28,03,17,14.80
2015,07,28,03,18,14.80
2015,07,28,03,19,14.80
2015,07,28,03,20,14.80
2015,07,28,03,21,14.80
2015,07,28,03,22,14.80
2015,07,28,03,23,14.80
2015,07,28,03,24,14.80
2015,07,28,03,25,14.80
2015,07,28,03,26,14.80
2015,07,28,03,27,14.80
2015,07,28,03,28,14.80
2015,07,28,03,29,14.80
2015,07,28,03,30,14.80
2015,07,28,03,31,14.80
2015,07,28,03,32,14.80
2015,07,28,03,33,14.80
2015,07,28,03,34,14.80
2015,07,28,03,35,14.80
2015,07,28,03,36,14.80
2015,07,28,03,37,14.80
2015,07,28,03,38,14.80
2015,07,28,03,39,14.80
2015,07,28,03,40,14.70
2015,07,28,03,41,14.70
2015,07,28,03,42,14.70
2015,07,28,03,43,14.70
2015,07,28,03,44,14.70
2015,07,28,03,45,14.70
2015,07,28,03,46,14.70
2015,07,28,03,47,14.70
2015,07,28,03,48,14.70
2015,07,28,03,49,14.70
2015,07,28,03,50,14.60
2015,07,28,03,51,14.60
2015,07,28,03,52,14.60
2015,07,28,03,53,14.60
2015,07,28,03,54,14.60
2015,07,28,03,55,14.60
2015,07,28,03,56,14.60
2015,07,28,03,57,14.60
2015,07,28,03,58,14.50
2015,07,28,03,59,14.50
2015,07,28,04,00,14.50
2015,07,28,04,01,14.50
2015,07,28,04,02,14.50
2015,07,28,04,03,14.40
2015,07,28,04,04,14.40
2015,07,28,04,05,14.40
2015,07,28,04,06,14.40
2015,07,28,04,07,14.40
2015,07,28,04,08,14.40
2015,07,28,04,09,14.40
2015,07,28,04,10,14.40
2015,07,28,04,11,14.40
2015,07,28,04,12,14.40
2015,07,28,04,13,14.40
2015,07,28,04,14,14.40
2015,07,28,04,15,14.40
2015,07,28,04,16,14.40
2015,07,28,04,17,14.40
2015,07,28,04,18,14.30
2015,07,28,04,19,14.30
2015,07,28,04,20,14.30
2015,07,28,04,21,14.30
2015,07,28,04,22,14.30
2015,07,28,04,23,14.30
2015,07,28,04,24,14.30
2015,07,28,04,25,14.30
2015,07,28,04,26,14.30
2015,07,28,04,27,14.30
2015,07,28,04,28,14.30
2015,07,28,04,29,14.30
2015,07,28,04,30,14.20
2015,07,28,04,31,14.20
2015,07,28,04,32,14.20
2015,07,28,04,33,14.20
2015,07,28,04,34,14.10
2015,07,28,04,35,14.10
2015,07,28,04,36,14.10
2015,07,28,04,37,14.00
2015,07,28,04,38,14.00
2015,07,28,04,39,13.90
2015,07,28,04,40,13.90
2015,07,28,04,41,13.80
2015,07,28,04,42,13.80
2015,07,28,04,43,13.80
2015,07,28,04,44,13.70
2015,07,28,04,45,13.70
2015,07,28,04,46,13.70
2015,07,28,04,47,13.70
2015,07,28,04,48,13.70
2015,07,28,04,49,13.60
2015,07,28,04,50,13.60
2015,07,28,04,51,13.60
2015,07,28,04,52,13.60
2015,07,28,04,53,13.60
2015,07,28,04,54,13.60
2015,07,28,04,55,13.60
2015,07,28,04,56,13.50
2015,07,28,04,57,13.50
2015,07,28,04,58,13.50
2015,07,28,04,59,13.50
2015,07,28,05,00,13.60
2015,07,28,05,01,13.60
2015,07,28,05,02,13.60
2015,07,28,05,03,13.60
2015,07,28,05,04,13.60
2015,07,28,05,05,13.60
2015,07,28,05,06,13.50
2015,07,28,05,07,13.50
2015,07,28,05,08,13.50
2015,07,28,05,09,13.50
2015,07,28,05,10,13.40
2015,07,28,05,11,13.40
2015,07,28,05,12,13.40
2015,07,28,05,13,13.40
2015,07,28,05,14,13.40
2015,07,28,05,15,13.40
2015,07,28,05,16,13.40
2015,07,28,05,17,13.40
2015,07,28,05,18,13.40
2015,07,28,05,19,13.30
2015,07,28,05,20,13.30
2015,07,28,05,21,13.30
2015,07,28,05,22,13.30
2015,07,28,05,23,13.30
2015,07,28,05,24,13.30
2015,07,28,05,25,13.30
2015,07,28,05,26,13.30
2015,07,28,05,27,13.30
2015,07,28,05,28,13.30
2015,07,28,05,29,13.20
2015,07,28,05,30,13.20
2015,07,28,05,31,13.20
2015,07,28,05,32,13.20
2015,07,28,05,33,13.20
2015,07,28,05,34,13.20
2015,07,28,05,35,13.10
2015,07,28,05,36,13.10
2015,07,28,05,37,13.10
2015,07,28,05,38,13.10
2015,07,28,05,39,13.20
2015,07,28,05,40,13.20
2015,07,28,05,41,13.10
2015,07,28,05,42,13.10
2015,07,28,05,43,13.10
2015,07,28,05,44,13.10
2015,07,28,05,45,13.00
2015,07,28,05,46,13.00
2015,07,28,05,47,13.00
2015,07,28,05,48,13.00
2015,07,28,05,49,13.00
2015,07,28,05,50,13.00
2015,07,28,05,51,13.00
2015,07,28,05,52,12.90
2015,07,28,05,53,12.90
2015,07,28,05,54,12.90
2015,07,28,05,55,12.90
2015,07,28,05,56,12.90
2015,07,28,05,57,12.90
2015,07,28,05,58,12.90
2015,07,28,05,59,12.90
2015,07,28,06,00,12.90
2015,07,28,06,01,12.90
2015,07,28,06,02,12.90
2015,07,28,06,03,12.90
2015,07,28,06,04,12.90
2015,07,28,06,05,12.90
2015,07,28,06,06,12.90
2015,07,28,06,07,12.90
2015,07,28,06,08,12.90
2015,07,28,06,09,13.00
2015,07,28,06,10,13.00
2015,07,28,06,11,13.00
2015,07,28,06,12,13.10
2015,07,28,06,13,13.10
2015,07,28,06,14,13.10
2015,07,28,06,15,13.10
2015,07,28,06,16,13.10
2015,07,28,06,17,13.20
2015,07,28,06,18,13.20
2015,07,28,06,19,13.30
2015,07,28,06,20,13.30
2015,07,28,06,21,13.30
2015,07,28,06,22,13.40
2015,07,28,06,23,13.40
2015,07,28,06,24,13.50
2015,07,28,06,25,13.60
2015,07,28,06,26,13.60
2015,07,28,06,27,13.60
2015,07,28,06,28,13.70
2015,07,28,06,29,13.70
2015,07,28,06,30,13.80
2015,07,28,06,31,13.90
2015,07,28,06,32,13.90
2015,07,28,06,33,14.00
2015,07,28,06,34,14.00
2015,07,28,06,35,14.10
2015,07,28,06,36,14.10
2015,07,28,06,37,14.20
2015,07,28,06,38,14.20
2015,07,28,06,39,14.30
2015,07,28,06,40,14.30
2015,07,28,06,41,14.40
2015,07,28,06,42,14.40
2015,07,28,06,43,14.40
2015,07,28,06,44,14.50
2015,07,28,06,45,14.60
2015,07,28,06,46,14.60
2015,07,28,06,47,14.70
2015,07,28,06,48,14.80
2015,07,28,06,49,14.80
2015,07,28,06,50,14.90
2015,07,28,06,51,15.00
2015,07,28,06,52,15.00
2015,07,28,06,53,15.10
2015,07,28,06,54,15.20
2015,07,28,06,55,15.30
2015,07,28,06,56,15.40
2015,07,28,06,57,15.50
2015,07,28,06,58,15.50
2015,07,28,06,59,15.60
2015,07,28,07,00,15.60
2015,07,28,07,01,15.50
2015,07,28,07,02,15.50
2015,07,28,07,03,15.50
2015,07,28,07,04,15.50
2015,07,28,07,05,15.50
2015,07,28,07,06,15.50
2015,07,28,07,07,15.50
2015,07,28,07,08,15.50
2015,07,28,07,09,15.60
2015,07,28,07,10,15.60
2015,07,28,07,11,15.60
2015,07,28,07,12,15.70
2015,07,28,07,13,15.70
2015,07,28,07,14,15.70
2015,07,28,07,15,15.80
2015,07,28,07,16,15.80
2015,07,28,07,17,15.70
2015,07,28,07,18,15.70
2015,07,28,07,19,15.50
2015,07,28,07,20,15.40
2015,07,28,07,21,15.20
2015,07,28,07,22,15.10
2015,07,28,07,23,14.90
2015,07,28,07,24,14.80
2015,07,28,07,25,14.70
2015,07,28,07,26,14.60
2015,07,28,07,27,14.60
2015,07,28,07,28,14.50
2015,07,28,07,29,14.50
2015,07,28,07,30,14.50
2015,07,28,07,31,14.50
2015,07,28,07,32,14.50
2015,07,28,07,33,14.40
2015,07,28,07,34,14.40
2015,07,28,07,35,14.40
2015,07,28,07,36,14.40
2015,07,28,07,37,14.40
2015,07,28,07,38,14.50
2015,07,28,07,39,14.50
2015,07,28,07,40,14.60
2015,07,28,07,41,14.60
2015,07,28,07,42,14.60
2015,07,28,07,43,14.70
2015,07,28,07,44,14.70
2015,07,28,07,45,14.60
2015,07,28,07,46,14.60
2015,07,28,07,47,14.60
2015,07,28,07,48,14.60
2015,07,28,07,49,14.60
2015,07,28,07,50,14.60
2015,07,28,07,51,14.60
2015,07,28,07,52,14.60
2015,07,28,07,53,14.60
2015,07,28,07,54,14.60
2015,07,28,07,55,14.60
2015,07,28,07,56,14.60
2015,07,28,07,57,14.60
2015,07,28,07,58,14.70
2015,07,28,07,59,14.70
2015,07,28,08,00,14.70
2015,07,28,08,01,14.70
2015,07,28,08,02,14.60
2015,07,28,08,03,14.60
2015,07,28,08,04,14.50
2015,07,28,08,05,14.50
2015,07,28,08,06,14.40
2015,07,28,08,07,14.40
2015,07,28,08,08,14.40
2015,07,28,08,09,14.40
2015,07,28,08,10,14.40
2015,07,28,08,11,14.40
2015,07,28,08,12,14.40
2015,07,28,08,13,14.40
2015,07,28,08,14,14.30
2015,07,28,08,15,14.30
2015,07,28,08,16,14.30
2015,07,28,08,17,14.30
2015,07,28,08,18,14.30
2015,07,28,08,19,14.30
2015,07,28,08,20,14.30
2015,07,28,08,21,14.30
2015,07,28,08,22,14.30
2015,07,28,08,23,14.30
2015,07,28,08,24,14.40
2015,07,28,08,25,14.40
2015,07,28,08,26,14.40
2015,07,28,08,27,14.50
2015,07,28,08,28,14.50
2015,07,28,08,29,14.50
2015,07,28,08,30,14.50
2015,07,28,08,31,14.50
2015,07,28,08,32,14.50
2015,07,28,08,33,14.50
2015,07,28,08,34,14.50
2015,07,28,08,35,14.60
2015,07,28,08,36,14.60
2015,07,28,08,37,14.70
2015,07,28,08,38,14.70
2015,07,28,08,39,14.70
2015,07,28,08,40,14.80
2015,07,28,08,41,14.80
2015,07,28,08,42,14.80
2015,07,28,08,43,14.80
2015,07,28,08,44,14.90
2015,07,28,08,45,14.90
2015,07,28,08,46,14.90
2015,07,28,08,47,15.00
2015,07,28,08,48,15.00
2015,07,28,08,49,15.10
2015,07,28,08,50,15.10
2015,07,28,08,51,15.10
2015,07,28,08,52,15.10
2015,07,28,08,53,15.10
2015,07,28,08,54,15.10
2015,07,28,08,55,15.20
2015,07,28,08,56,15.10
2015,07,28,08,57,15.10
2015,07,28,08,58,15.00
2015,07,28,08,59,15.00
2015,07,28,09,00,14.90
2015,07,28,09,01,14.80
2015,07,28,09,02,14.80
2015,07,28,09,03,14.70
2015,07,28,09,04,14.70
2015,07,28,09,05,14.60
2015,07,28,09,06,14.60
2015,07,28,09,07,14.60
2015,07,28,09,08,14.60
2015,07,28,09,09,14.60
2015,07,28,09,10,14.60
2015,07,28,09,11,14.60
2015,07,28,09,12,14.60
2015,07,28,09,13,14.50
2015,07,28,09,14,14.50
2015,07,28,09,15,14.40
2015,07,28,09,16,14.50
2015,07,28,09,17,14.50
2015,07,28,09,18,14.50
2015,07,28,09,19,14.50
2015,07,28,09,20,14.50
2015,07,28,09,21,14.60
2015,07,28,09,22,14.60
2015,07,28,09,23,14.70
2015,07,28,09,24,14.80
2015,07,28,09,25,14.80
2015,07,28,09,26,14.90
2015,07,28,09,27,14.90
2015,07,28,09,28,14.90
2015,07,28,09,29,15.00
2015,07,28,09,30,15.00
2015,07,28,09,31,15.10
2015,07,28,09,32,15.10
2015,07,28,09,33,15.10
2015,07,28,09,34,15.00
2015,07,28,09,35,15.00
2015,07,28,09,36,14.80
2015,07,28,09,37,14.70
2015,07,28,09,38,14.60
2015,07,28,09,39,14.50
2015,07,28,09,40,14.50
2015,07,28,09,41,14.50
2015,07,28,09,42,14.50
2015,07,28,09,43,14.60
2015,07,28,09,44,14.60
2015,07,28,09,45,14.60
2015,07,28,09,46,14.60
2015,07,28,09,47,14.60
2015,07,28,09,48,14.60
2015,07,28,09,49,14.70
2015,07,28,09,50,14.70
2015,07,28,09,51,14.80
2015,07,28,09,52,14.80
2015,07,28,09,53,15.00
2015,07,28,09,54,15.10
2015,07,28,09,55,15.20
2015,07,28,09,56,15.20
2015,07,28,09,57,15.20
2015,07,28,09,58,15.20
2015,07,28,09,59,15.10
2015,07,28,10,00,15.10
2015,07,28,10,01,15.00
2015,07,28,10,02,14.90
2015,07,28,10,03,14.80
2015,07,28,10,04,14.70
2015,07,28,10,05,14.60
2015,07,28,10,06,14.60
2015,07,28,10,07,14.50
2015,07,28,10,08,14.40
2015,07,28,10,09,14.40
2015,07,28,10,10,14.40
2015,07,28,10,11,14.30
2015,07,28,10,12,14.30
2015,07,28,10,13,14.30
2015,07,28,10,14,14.30
2015,07,28,10,15,14.30
2015,07,28,10,16,14.20
2015,07,28,10,17,14.20
2015,07,28,10,18,14.20
2015,07,28,10,19,14.20
2015,07,28,10,20,14.20
2015,07,28,10,21,14.20
2015,07,28,10,22,14.20
2015,07,28,10,23,14.30
2015,07,28,10,24,14.30
2015,07,28,10,25,14.30
2015,07,28,10,26,14.40
2015,07,28,10,27,14.40
2015,07,28,10,28,14.50
2015,07,28,10,29,14.50
2015,07,28,10,30,14.50
2015,07,28,10,31,14.50
2015,07,28,10,32,14.60
2015,07,28,10,33,14.60
2015,07,28,10,34,14.60
2015,07,28,10,35,14.60
2015,07,28,10,36,14.70
2015,07,28,10,37,14.70
2015,07,28,10,38,14.80
2015,07,28,10,39,14.90
2015,07,28,10,40,14.90
2015,07,28,10,41,14.90
2015,07,28,10,42,14.80
2015,07,28,10,43,14.80
2015,07,28,10,44,14.80
2015,07,28,10,45,14.90
2015,07,28,10,46,14.90
2015,07,28,10,47,14.90
2015,07,28,10,48,14.80
2015,07,28,10,49,14.70
2015,07,28,10,50,14.60
2015,07,28,10,51,14.60
2015,07,28,10,52,14.60
2015,07,28,10,53,14.60
2015,07,28,10,54,14.60
2015,07,28,10,55,14.50
2015,07,28,10,56,14.50
2015,07,28,10,57,14.50
2015,07,28,10,58,14.50
2015,07,28,10,59,14.50
2015,07,28,11,00,14.50
2015,07,28,11,01,14.60
2015,07,28,11,02,14.70
2015,07,28,11,03,14.80
2015,07,28,11,04,15.00
2015,07,28,11,05,15.10
2015,07,28,11,06,15.20
2015,07,28,11,07,15.30
2015,07,28,11,08,15.40
2015,07,28,11,09,15.50
2015,07,28,11,10,15.70
2015,07,28,11,11,15.80
2015,07,28,11,12,15.90
2015,07,28,11,13,16.00
2015,07,28,11,14,16.10
2015,07,28,11,15,16.30
2015,07,28,11,16,16.40
2015,07,28,11,17,16.60
2015,07,28,11,18,16.80
2015,07,28,11,19,16.90
2015,07,28,11,20,17.00
2015,07,28,11,21,17.20
2015,07,28,11,22,17.20
2015,07,28,11,23,17.30
2015,07,28,11,24,17.40
2015,07,28,11,25,17.40
2015,07,28,11,26,17.50
2015,07,28,11,27,17.60
2015,07,28,11,28,17.70
2015,07,28,11,29,17.70
2015,07,28,11,30,17.80
2015,07,28,11,31,17.80
2015,07,28,11,32,17.80
2015,07,28,11,33,17.90
2015,07,28,11,34,17.90
2015,07,28,11,35,17.90
2015,07,28,11,36,17.90
2015,07,28,11,37,17.90
2015,07,28,11,38,17.90
2015,07,28,11,39,17.90
2015,07,28,11,40,18.00
2015,07,28,11,41,18.00
2015,07,28,11,42,18.10
2015,07,28,11,43,18.10
2015,07,28,11,44,18.10
2015,07,28,11,45,18.20
2015,07,28,11,46,18.20
2015,07,28,11,47,18.20
2015,07,28,11,48,18.20
2015,07,28,11,49,18.30
2015,07,28,11,50,18.30
2015,07,28,11,51,18.30
2015,07,28,11,52,18.30
2015,07,28,11,53,18.30
2015,07,28,11,54,18.30
2015,07,28,11,55,18.40
2015,07,28,11,56,18.40
2015,07,28,11,57,18.40
2015,07,28,11,58,18.40
2015,07,28,11,59,18.50
2015,07,28,12,00,18.50
2015,07,28,12,01,18.60
2015,07,28,12,02,18.60
2015,07,28,12,03,18.60
2015,07,28,12,04,18.60
2015,07,28,12,05,18.60
2015,07,28,12,06,18.60
2015,07,28,12,07,18.60
2015,07,28,12,08,18.60
2015,07,28,12,09,18.60
2015,07,28,12,10,18.60
2015,07,28,12,11,18.60
2015,07,28,12,12,18.70
2015,07,28,12,13,18.60
2015,07,28,12,14,18.70
2015,07,28,12,15,18.70
2015,07,28,12,16,18.70
2015,07,28,12,17,18.70
2015,07,28,12,18,18.70
2015,07,28,12,19,18.60
2015,07,28,12,20,18.60
2015,07,28,12,21,18.50
2015,07,28,12,22,18.50
2015,07,28,12,23,18.50
2015,07,28,12,24,18.50
2015,07,28,12,25,18.50
2015,07,28,12,26,18.50
2015,07,28,12,27,18.50
2015,07,28,12,28,18.60
2015,07,28,12,29,18.60
2015,07,28,12,30,18.70
2015,07,28,12,31,18.70
2015,07,28,12,32,18.70
2015,07,28,12,33,18.80
2015,07,28,12,34,18.80
2015,07,28,12,35,18.90
2015,07,28,12,36,18.90
2015,07,28,12,37,18.90
2015,07,28,12,38,19.00
2015,07,28,12,39,19.10
2015,07,28,12,40,19.10
2015,07,28,12,41,19.10
2015,07,28,12,42,19.10
2015,07,28,12,43,19.10
2015,07,28,12,44,19.10
2015,07,28,12,45,19.10
2015,07,28,12,46,19.10
2015,07,28,12,47,19.20
2015,07,28,12,48,19.30
2015,07,28,12,49,19.40
2015,07,28,12,50,19.40
2015,07,28,12,51,19.50
2015,07,28,12,52,19.60
2015,07,28,12,53,19.60
2015,07,28,12,54,19.60
2015,07,28,12,55,19.60
2015,07,28,12,56,19.50
2015,07,28,12,57,19.50
2015,07,28,12,58,19.60
2015,07,28,12,59,19.60
2015,07,28,13,00,19.60
2015,07,28,13,01,19.60
2015,07,28,13,02,19.60
2015,07,28,13,03,19.70
2015,07,28,13,04,19.80
2015,07,28,13,05,19.80
2015,07,28,13,06,19.80
2015,07,28,13,07,19.80
2015,07,28,13,08,19.80
2015,07,28,13,09,19.80
2015,07,28,13,10,19.80
2015,07,28,13,11,19.70
2015,07,28,13,12,19.70
2015,07,28,13,13,19.70
2015,07,28,13,14,19.70
2015,07,28,13,15,19.70
2015,07,28,13,16,19.70
2015,07,28,13,17,19.70
2015,07,28,13,18,19.80
2015,07,28,13,19,19.80
2015,07,28,13,20,19.80
2015,07,28,13,21,19.80
2015,07,28,13,22,19.80
2015,07,28,13,23,19.80
2015,07,28,13,24,19.80
2015,07,28,13,25,19.80
2015,07,28,13,26,19.80
2015,07,28,13,27,19.80
2015,07,28,13,28,19.80
2015,07,28,13,29,19.80
2015,07,28,13,30,19.90
2015,07,28,13,31,19.90
2015,07,28,13,32,19.90
2015,07,28,13,33,19.80
2015,07,28,13,34,19.80
2015,07,28,13,35,19.80
2015,07,28,13,36,19.80
2015,07,28,13,37,19.80
2015,07,28,13,38,19.80
2015,07,28,13,39,19.80
2015,07,28,13,40,19.80
2015,07,28,13,41,19.80
2015,07,28,13,42,19.80
2015,07,28,13,43,19.80
2015,07,28,13,44,19.80
2015,07,28,13,45,19.80
2015,07,28,13,46,19.90
2015,07,28,13,47,19.90
2015,07,28,13,48,19.90
2015,07,28,13,49,19.90
2015,07,28,13,50,19.90
2015,07,28,13,51,19.90
2015,07,28,13,52,19.90
2015,07,28,13,53,19.90
2015,07,28,13,54,19.90
2015,07,28,13,55,20.00
2015,07,28,13,56,20.00
2015,07,28,13,57,20.00
2015,07,28,13,58,20.10
2015,07,28,13,59,20.10
2015,07,28,14,00,20.10
2015,07,28,14,01,20.10
2015,07,28,14,02,20.10
2015,07,28,14,03,20.10
2015,07,28,14,04,20.10
2015,07,28,14,05,20.10
2015,07,28,14,06,20.00
2015,07,28,14,07,20.00
2015,07,28,14,08,19.90
2015,07,28,14,09,19.90
2015,07,28,14,10,19.90
2015,07,28,14,11,19.90
2015,07,28,14,12,19.90
2015,07,28,14,13,19.90
2015,07,28,14,14,19.90
2015,07,28,14,15,19.90
2015,07,28,14,16,20.00
2015,07,28,14,17,20.00
2015,07,28,14,18,20.10
2015,07,28,14,19,20.10
2015,07,28,14,20,20.10
2015,07,28,14,21,20.10
2015,07,28,14,22,20.10
2015,07,28,14,23,20.10
2015,07,28,14,24,20.10
2015,07,28,14,25,20.10
2015,07,28,14,26,20.10
2015,07,28,14,27,20.10
2015,07,28,14,28,20.10
2015,07,28,14,29,20.10
2015,07,28,14,30,20.10
2015,07,28,14,31,20.00
2015,07,28,14,32,20.00
2015,07,28,14,33,20.00
2015,07,28,14,34,20.00
2015,07,28,14,35,20.00
2015,07,28,14,36,20.00
2015,07,28,14,37,19.90
2015,07,28,14,38,19.90
2015,07,28,14,39,19.90
2015,07,28,14,40,19.90
2015,07,28,14,41,19.80
2015,07,28,14,42,19.80
2015,07,28,14,43,19.80
2015,07,28,14,44,19.80
2015,07,28,14,45,19.90
2015,07,28,14,46,19.90
2015,07,28,14,47,19.90
2015,07,28,14,48,19.90
2015,07,28,14,49,19.90
2015,07,28,14,50,19.90
2015,07,28,14,51,19.90
2015,07,28,14,52,19.80
2015,07,28,14,53,19.90
2015,07,28,14,54,19.90
2015,07,28,14,55,20.00
2015,07,28,14,56,20.00
2015,07,28,14,57,20.00
2015,07,28,14,58,20.00
2015,07,28,14,59,20.10
2015,07,28,15,00,20.10
2015,07,28,15,01,20.10
2015,07,28,15,02,20.10
2015,07,28,15,03,20.10
2015,07,28,15,04,20.10
2015,07,28,15,05,20.10
2015,07,28,15,06,20.10
2015,07,28,15,07,20.20
2015,07,28,15,08,20.20
2015,07,28,15,09,20.20
2015,07,28,15,10,20.30
2015,07,28,15,11,20.30
2015,07,28,15,12,20.40
2015,07,28,15,13,20.50
2015,07,28,15,14,20.50
2015,07,28,15,15,20.50
2015,07,28,15,16,20.60
2015,07,28,15,17,20.50
2015,07,28,15,18,20.50
2015,07,28,15,19,20.60
2015,07,28,15,20,20.60
2015,07,28,15,21,20.60
2015,07,28,15,22,20.60
2015,07,28,15,23,20.70
2015,07,28,15,24,20.70
2015,07,28,15,25,20.80
2015,07,28,15,26,20.80
2015,07,28,15,27,20.90
2015,07,28,15,28,20.90
2015,07,28,15,29,20.90
2015,07,28,15,30,20.90
2015,07,28,15,31,20.90
2015,07,28,15,32,20.90
2015,07,28,15,33,21.00
2015,07,28,15,34,21.00
2015,07,28,15,35,21.00
2015,07,28,15,36,21.00
2015,07,28,15,37,21.00
2015,07,28,15,38,21.00
2015,07,28,15,39,21.10
2015,07,28,15,40,21.10
2015,07,28,15,41,21.10
2015,07,28,15,42,21.10
2015,07,28,15,43,21.00
2015,07,28,15,44,20.90
2015,07,28,15,45,20.80
2015,07,28,15,46,20.80
2015,07,28,15,47,20.80
2015,07,28,15,48,20.80
2015,07,28,15,49,20.90
2015,07,28,15,50,21.00
2015,07,28,15,51,21.10
2015,07,28,15,52,21.20
2015,07,28,15,53,21.20
2015,07,28,15,54,21.30
2015,07,28,15,55,21.30
2015,07,28,15,56,21.30
2015,07,28,15,57,21.30
2015,07,28,15,58,21.30
2015,07,28,15,59,21.30
2015,07,28,16,00,21.30
2015,07,28,16,01,21.40
2015,07,28,16,02,21.40
2015,07,28,16,03,21.40
2015,07,28,16,04,21.40
2015,07,28,16,05,21.40
2015,07,28,16,06,21.30
2015,07,28,16,07,21.30
2015,07,28,16,08,21.30
2015,07,28,16,09,21.30
2015,07,28,16,10,21.40
2015,07,28,16,11,21.40
2015,07,28,16,12,21.40
2015,07,28,16,13,21.40
2015,07,28,16,14,21.30
2015,07,28,16,15,21.20
2015,07,28,16,16,21.10
2015,07,28,16,17,21.10
2015,07,28,16,18,21.10
2015,07,28,16,19,21.10
2015,07,28,16,20,21.10
2015,07,28,16,21,21.10
2015,07,28,16,22,21.10
2015,07,28,16,23,21.10
2015,07,28,16,24,21.20
2015,07,28,16,25,21.20
2015,07,28,16,26,21.20
2015,07,28,16,27,21.30
2015,07,28,16,28,21.30
2015,07,28,16,29,21.30
2015,07,28,16,30,21.30
2015,07,28,16,31,21.40
2015,07,28,16,32,21.40
2015,07,28,16,33,21.40
2015,07,28,16,34,21.40
2015,07,28,16,35,21.50
2015,07,28,16,36,21.60
2015,07,28,16,37,21.60
2015,07,28,16,38,21.60
2015,07,28,16,39,21.70
2015,07,28,16,40,21.70
2015,07,28,16,41,21.80
2015,07,28,16,42,21.80
2015,07,28,16,43,21.80
2015,07,28,16,44,21.80
2015,07,28,16,45,21.80
2015,07,28,16,46,21.80
2015,07,28,16,47,21.80
2015,07,28,16,48,21.90
2015,07,28,16,49,21.90
2015,07,28,16,50,21.90
2015,07,28,16,51,22.00
2015,07,28,16,52,22.00
2015,07,28,16,53,22.00
2015,07,28,16,54,22.10
2015,07,28,16,55,22.20
2015,07,28,16,56,22.20
2015,07,28,16,57,22.20
2015,07,28,16,58,22.20
2015,07,28,16,59,22.20
2015,07,28,17,00,22.20
2015,07,28,17,01,22.20
2015,07,28,17,02,22.20
2015,07,28,17,03,22.10
2015,07,28,17,04,22.00
2015,07,28,17,05,22.00
2015,07,28,17,06,21.90
2015,07,28,17,07,21.90
2015,07,28,17,08,21.80
2015,07,28,17,09,21.80
2015,07,28,17,10,21.70
2015,07,28,17,11,21.70
2015,07,28,17,12,21.70
2015,07,28,17,13,21.70
2015,07,28,17,14,21.70
2015,07,28,17,15,21.70
2015,07,28,17,16,21.70
2015,07,28,17,17,21.70
2015,07,28,17,18,21.70
2015,07,28,17,19,21.70